OneWeb SL0060

operational
NORAD ID: 45455 Int'l Des: 2020-020 Owner: ONEWEB Country: UK Constellation: oneweb
LEOCIRCULARPOLARONEWEB_TYPE

About OneWeb SL0060

Description loading...

Live Position

Loading 3D Globe...

Upcoming Passes

Altitude History

Altitude vs Time

uPlot chart will show altitude changes over time

Two-Line Element Set

1 45455U 20020AH 26035.26400206 .00000193 00000-0 50899-3 0 9990
2 45455 87.8811 47.5179 0001144 59.3327 300.7914 13.11415405285127
Epoch: Feb 4, 2026 • Age: 8 hours

Current Status

Altitude 1230.8 km
Velocity 7.25 km/s
Sub-Earth Point 87.82°N, 136.26°E
Launch Date Mar 21, 2020
Age 5.8 years
Type internet

Technical Details

Classification Payload
Mass 148.00 kg
Dry Mass 140.00 kg
Total Mass 148.00 kg
Length 1.30 m
Diameter 1.00 m
Span 5.00 m
Shape Trapezoid+2 pan
Manufacturer ONEWUS
Bus Type ARROW
Phase Status In Orbit
Owner/State ONEWEB/UK

Large Constellations

Loading constellations...